• în România
  • Lista ţărilor
  • Pe 7 zile
  • Temperatura apei
  • Hartă satelitară
  • Meteo pe hartă
  • Widget-uri
  • user-avatar
    Intrare

    Meteo pe oră la Lethem

    Astăzi, 23 Mai, Miercuri

    Timp Temperatura Precipitaţii Vânt Presiune Umiditate
    00:00 +27°C° 0,1 mm 3 m/s 752 mmHg 78%
    01:00 +27°C° 0,1 mm 3 m/s 752 mmHg 79%
    02:00 +27°C° 0,1 mm 3 m/s 752 mmHg 80%
    03:00 +27°C° 0 mm 3 m/s 752 mmHg 80%
    04:00 +27°C° 0 mm 3 m/s 752 mmHg 81%
    05:00 +26°C° 0 mm 3 m/s 752 mmHg 81%
    06:00 +27°C° 0,1 mm 3 m/s 753 mmHg 80%
    07:00 +27°C° 0,1 mm 3 m/s 753 mmHg 79%
    08:00 +28°C° 0,1 mm 4 m/s 754 mmHg 77%
    09:00 +29°C° 0,2 mm 4 m/s 753 mmHg 72%
    10:00 +30°C° 0,2 mm 4 m/s 753 mmHg 67%
    11:00 +33°C° 0,2 mm 4 m/s 753 mmHg 63%
    12:00 +33°C° 1,2 mm 4 m/s 753 mmHg 63%
    13:00 +33°C° 1,2 mm 4 m/s 752 mmHg 63%
    14:00 +34°C° 1,2 mm 4 m/s 751 mmHg 63%
    15:00 +33°C° 0,8 mm 4 m/s 751 mmHg 64%
    16:00 +33°C° 0,8 mm 4 m/s 751 mmHg 64%
    17:00 +33°C° 0,8 mm 4 m/s 750 mmHg 65%
    18:00 +30°C° 0,2 mm 3 m/s 751 mmHg 69%
    19:00 +29°C° 0,2 mm 3 m/s 751 mmHg 72%
    20:00 +28°C° 0,2 mm 3 m/s 752 mmHg 76%
    21:00 +28°C° 0,1 mm 3 m/s 752 mmHg 78%
    22:00 +27°C° 0,1 mm 3 m/s 753 mmHg 80%
    23:00 +27°C° 0,1 mm 3 m/s 753 mmHg 82%

    Mâine, 24 Mai, Joi

    Timp Temperatura Precipitaţii Vânt Presiune Umiditate
    00:00 +26°C° 0,4 mm 3 m/s 753 mmHg 83%
    01:00 +26°C° 0,4 mm 3 m/s 752 mmHg 85%
    02:00 +26°C° 0,4 mm 3 m/s 752 mmHg 87%
    03:00 +26°C° 0,6 mm 2 m/s 752 mmHg 88%
    04:00 +25°C° 0,6 mm 2 m/s 752 mmHg 89%
    05:00 +25°C° 0,6 mm 2 m/s 752 mmHg 91%
    06:00 +26°C° 0,2 mm 3 m/s 753 mmHg 88%
    07:00 +27°C° 0,2 mm 3 m/s 753 mmHg 85%
    08:00 +27°C° 0,2 mm 3 m/s 754 mmHg 82%
    09:00 +28°C° 0 mm 3 m/s 754 mmHg 78%
    10:00 +29°C° 0 mm 3 m/s 754 mmHg 73%
    11:00 +30°C° 0 mm 3 m/s 754 mmHg 69%
    12:00 +31°C° 0,1 mm 3 m/s 753 mmHg 68%
    13:00 +31°C° 0,1 mm 3 m/s 752 mmHg 66%
    14:00 +31°C° 0,1 mm 3 m/s 752 mmHg 65%
    15:00 +31°C° 0 mm 2 m/s 751 mmHg 66%
    16:00 +31°C° 0 mm 2 m/s 751 mmHg 67%
    17:00 +31°C° 0 mm 2 m/s 750 mmHg 69%
    18:00 +30°C° 0 mm 2 m/s 751 mmHg 73%
    19:00 +29°C° 0 mm 2 m/s 751 mmHg 78%
    20:00 +28°C° 0 mm 2 m/s 752 mmHg 82%
    21:00 +27°C° 0,4 mm 2 m/s 752 mmHg 84%
    22:00 +27°C° 0,4 mm 2 m/s 753 mmHg 85%
    23:00 +27°C° 0,4 mm 2 m/s 753 mmHg 87%

    Poimâine, 25 Mai, Vineri

    Timp Temperatura Precipitaţii Vânt Presiune Umiditate
    00:00 +27°C° 0,1 mm 2 m/s 752 mmHg 88%
    01:00 +26°C° 0,1 mm 2 m/s 752 mmHg 88%
    02:00 +26°C° 0,1 mm 2 m/s 751 mmHg 89%
    03:00 +26°C° 0 mm 2 m/s 751 mmHg 89%
    04:00 +26°C° 0 mm 2 m/s 751 mmHg 90%
    05:00 +25°C° 0 mm 2 m/s 751 mmHg 91%
    06:00 +27°C° 0 mm 2 m/s 752 mmHg 85%
    07:00 +28°C° 0 mm 3 m/s 752 mmHg 80%
    08:00 +29°C° 0 mm 3 m/s 753 mmHg 75%
    09:00 +30°C° 0,4 mm 3 m/s 753 mmHg 69%
    10:00 +33°C° 0,4 mm 4 m/s 752 mmHg 63%
    11:00 +34°C° 0,4 mm 4 m/s 752 mmHg 57%
    12:00 +34°C° 0,7 mm 4 m/s 751 mmHg 58%
    13:00 +34°C° 0,7 mm 4 m/s 751 mmHg 59%
    14:00 +34°C° 0,7 mm 5 m/s 750 mmHg 60%
    15:00 +34°C° 0,1 mm 4 m/s 749 mmHg 61%
    16:00 +33°C° 0,1 mm 4 m/s 749 mmHg 62%
    17:00 +33°C° 0,1 mm 4 m/s 749 mmHg 63%
    18:00 +31°C° 0,1 mm 3 m/s 749 mmHg 68%
    19:00 +29°C° 0,1 mm 3 m/s 750 mmHg 74%
    20:00 +28°C° 0,1 mm 3 m/s 750 mmHg 80%
    21:00 +28°C° 0,4 mm 3 m/s 751 mmHg 81%
    22:00 +27°C° 0,4 mm 3 m/s 751 mmHg 82%
    23:00 +27°C° 0,4 mm 3 m/s 752 mmHg 84%

    26 Mai, Sâmbătă

    Timp Temperatura Precipitaţii Vânt Presiune Umiditate
    00:00 +27°C° 0,2 mm 2 m/s 751 mmHg 85%
    01:00 +26°C° 0,2 mm 2 m/s 751 mmHg 87%
    02:00 +26°C° 0,2 mm 2 m/s 750 mmHg 88%
    03:00 +26°C° 0,1 mm 2 m/s 750 mmHg 89%
    04:00 +26°C° 0,1 mm 2 m/s 751 mmHg 89%
    05:00 +25°C° 0,1 mm 1 m/s 751 mmHg 90%
    06:00 +26°C° 0 mm 2 m/s 751 mmHg 85%
    07:00 +28°C° 0 mm 2 m/s 752 mmHg 80%
    08:00 +29°C° 0 mm 3 m/s 752 mmHg 75%
    09:00 +30°C° 0,6 mm 2 m/s 752 mmHg 69%
    10:00 +32°C° 0,6 mm 2 m/s 751 mmHg 63%
    11:00 +34°C° 0,6 mm 2 m/s 751 mmHg 57%
    12:00 +34°C° 0,9 mm 2 m/s 750 mmHg 57%
    13:00 +35°C° 0,9 mm 2 m/s 749 mmHg 57%
    14:00 +35°C° 0,9 mm 2 m/s 748 mmHg 56%
    15:00 +35°C° 0,8 mm 2 m/s 748 mmHg 59%
    16:00 +34°C° 0,8 mm 2 m/s 748 mmHg 61%
    17:00 +34°C° 0,8 mm 2 m/s 748 mmHg 64%
    18:00 +31°C° 1 mm 2 m/s 749 mmHg 70%
    19:00 +30°C° 1 mm 3 m/s 749 mmHg 76%
    20:00 +28°C° 1 mm 3 m/s 750 mmHg 81%
    21:00 +28°C° 0,3 mm 3 m/s 751 mmHg 82%
    22:00 +28°C° 0,3 mm 3 m/s 751 mmHg 83%
    23:00 +27°C° 0,3 mm 4 m/s 751 mmHg 84%

    27 Mai, Duminică

    Timp Temperatura Precipitaţii Vânt Presiune Umiditate
    00:00 +27°C° 0,1 mm 4 m/s 751 mmHg 85%
    01:00 +27°C° 0,1 mm 4 m/s 750 mmHg 87%
    02:00 +26°C° 0,1 mm 4 m/s 750 mmHg 88%
    03:00 +26°C° 0,3 mm 4 m/s 750 mmHg 89%
    04:00 +26°C° 0,3 mm 4 m/s 750 mmHg 89%
    05:00 +26°C° 0,3 mm 4 m/s 751 mmHg 89%
    06:00 +26°C° 0,2 mm 4 m/s 751 mmHg 88%
    07:00 +26°C° 0,2 mm 4 m/s 752 mmHg 87%
    08:00 +27°C° 0,2 mm 4 m/s 752 mmHg 86%
    09:00 +27°C° 0,2 mm 4 m/s 752 mmHg 82%
    10:00 +28°C° 0,2 mm 4 m/s 752 mmHg 79%
    11:00 +29°C° 0,2 mm 4 m/s 752 mmHg 76%
    12:00 +30°C° 0,7 mm 4 m/s 752 mmHg 75%
    13:00 +30°C° 0,7 mm 4 m/s 751 mmHg 74%
    14:00 +30°C° 0,7 mm 4 m/s 751 mmHg 73%
    15:00 +30°C° 1,1 mm 4 m/s 750 mmHg 75%
    16:00 +29°C° 1,1 mm 3 m/s 750 mmHg 78%
    17:00 +29°C° 1,1 mm 3 m/s 750 mmHg 81%
    18:00 +28°C° 0,1 mm 3 m/s 751 mmHg 84%
    19:00 +27°C° 0,1 mm 2 m/s 751 mmHg 87%
    20:00 +27°C° 0,1 mm 2 m/s 752 mmHg 90%
    21:00 +27°C° 0,2 mm 2 m/s 752 mmHg 90%
    22:00 +26°C° 0,2 mm 2 m/s 752 mmHg 90%
    23:00 +26°C° 0,2 mm 2 m/s 753 mmHg 90%

    28 Mai, Luni

    Timp Temperatura Precipitaţii Vânt Presiune Umiditate
    00:00 +26°C° 0,2 mm 2 m/s 752 mmHg 91%
    01:00 +26°C° 0,2 mm 2 m/s 752 mmHg 92%
    02:00 +25°C° 0,2 mm 2 m/s 751 mmHg 92%
    03:00 +25°C° 0,2 mm 2 m/s 752 mmHg 92%
    04:00 +25°C° 0,2 mm 2 m/s 752 mmHg 93%
    05:00 +25°C° 0,2 mm 2 m/s 752 mmHg 93%
    06:00 +26°C° 0,2 mm 2 m/s 752 mmHg 91%
    07:00 +26°C° 0,2 mm 3 m/s 753 mmHg 88%
    08:00 +27°C° 0,2 mm 3 m/s 753 mmHg 86%
    09:00 +28°C° 0,2 mm 3 m/s 753 mmHg 82%
    10:00 +29°C° 0,2 mm 3 m/s 753 mmHg 77%
    11:00 +30°C° 0,2 mm 4 m/s 753 mmHg 73%
    12:00 +30°C° 0,3 mm 3 m/s 752 mmHg 71%
    13:00 +31°C° 0,3 mm 3 m/s 751 mmHg 69%
    14:00 +31°C° 0,3 mm 3 m/s 750 mmHg 67%
    15:00 +30°C° 0,1 mm 3 m/s 750 mmHg 69%
    16:00 +30°C° 0,1 mm 3 m/s 750 mmHg 72%
    17:00 +30°C° 0,1 mm 3 m/s 750 mmHg 74%
    18:00 +29°C° 0 mm 2 m/s 750 mmHg 77%
    19:00 +28°C° 0 mm 2 m/s 751 mmHg 81%
    20:00 +27°C° 0 mm 2 m/s 751 mmHg 84%
    21:00 +27°C° 0 mm 2 m/s 752 mmHg 84%
    22:00 +27°C° 0 mm 2 m/s 752 mmHg 85%
    23:00 +27°C° 0 mm 3 m/s 752 mmHg 85%
    Arată mai mult